Regional Weather Roundup
Issued by NWS Goodland, KS

Home | Current Version | Previous Version | Text Only | Print | Product List | Glossary Off
Versions: 1 2 3 4 5 6 7 8 9 10 11 12 13 14 15 16 17 18 19 20 21 22 23 24 25 26 27 28 29 30 31 32 33 34 35 36 37 38 39 40 41 42 43 44 45 46 47 48 49 50

904
ASUS43 KGLD 131608
RWRGLD

GOODLAND FORECAST AREA HOURLY WEATHER ROUNDUP
NATIONAL WEATHER SERVICE GOODLAND KS
900 AM MST WED DEC 13 2017

...OFFICIAL OBSERVATIONS...

CITY           SKY/WX    TMP DP  RH WIND       PRES   REMARKS
GOODLAND KS    SUNNY     48  15  26 NW17G25   30.07S
HILL CITY KS   SUNNY     55  18  23 NW18G26   30.00R
IMPERIAL NEB   SUNNY     47  16  29 NW20G29   30.05R
MCCOOK NEB     SUNNY     52  20  28 NW28G39   30.00S
AKRON CO       SUNNY     45  11  25 MISG      30.14R
BURLINGTON CO  CLOUDY    47  14  26 NW13      30.11S
LIMON CO       CLOUDY    42  10  27 N13       30.17R
$$

...UNOFFICIAL OBSERVATIONS...

CITY           SKY/WX    TMP DP  RH WIND       PRES   REMARKS
COLBY KS       SUNNY     52  23  32 NW21G31   30.07R
LENORA KS        N/A     52  32  46 NW16        N/A
NORTON KS      SUNNY     54  12  19 NW21G31   29.97
SHARON SPRINGS   N/A     50  17  27 N17G26      N/A
TRENTON NEB      N/A     49  32  52 NW13        N/A
YUMA CO        FAIR      43  14  31 NW23G30   30.12R
$$




USA.gov is the U.S. government's official web portal to all federal, state and local government web resources and services.